Total_Precipitation_Accumulation
0.00 0.00 0.01 0.01 0.01 0.02 0.03 0.07 0.15 0.17 0.16 0.23 0.37 0.62 0.74 0.71 0.72 0.76 0.88 1.11 1.16 1.22 1.48 1.90 2.47 2.93 3.49 4.29 4.75 4.80 4.40 3.55 2.97 2.49 2.24 2.01 1.76 1.59 1.37 1.13 0.95 0.81 0.78 0.71
0.01 0.02 0.02 0.01 0.01 0.03 0.05 0.09 0.17 0.16 0.12 0.14 0.34 0.65 0.73 0.77 0.82 0.75 0.80 0.91 0.86 0.98 1.31 1.90 2.60 3.20 3.54 3.95 4.16 4.08 3.55 2.77 2.25 1.93 1.77 1.56 1.37 1.12 1.01 0.85 0.76 0.69 0.65 0.61
0.02 0.03 0.02 0.01 0.02 0.04 0.08 0.09 0.14 0.17 0.13 0.15 0.34 0.75 0.87 0.83 0.81 0.75 0.63 0.64 0.76 0.95 1.52 2.24 2.99 3.50 3.55 3.41 3.07 2.70 2.39 1.98 1.79 1.68 1.48 1.28 1.20 1.02 0.84 0.62 0.51 0.48 0.44 0.41
0.02 0.03 0.02 0.02 0.04 0.05 0.09 0.07 0.05 0.07 0.11 0.32 0.45 0.86 0.93 0.92 0.86 0.67 0.60 0.67 0.80 1.06 1.63 2.32 2.82 2.88 2.83 2.57 2.14 1.89 1.76 1.62 1.47 1.36 1.26 1.04 0.85 0.76 0.62 0.53 0.45 0.40 0.34 0.32
0.02 0.03 0.03 0.03 0.04 0.05 0.05 0.04 0.04 0.08 0.18 0.34 0.47 0.74 0.96 0.92 0.96 0.57 0.45 0.55 0.67 0.90 1.19 1.39 1.55 1.57 1.57 1.45 1.51 1.55 1.55 1.52 1.40 1.28 1.17 1.06 0.83 0.72 0.66 0.64 0.57 0.49 0.40 0.33
0.03 0.03 0.03 0.03 0.03 0.04 0.04 0.06 0.12 0.21 0.36 0.70 0.69 0.79 1.06 1.00 0.83 0.43 0.26 0.33 0.52 0.64 0.66 0.70 0.71 0.76 0.90 0.85 0.97 1.09 1.11 1.20 1.27 1.23 1.07 0.98 0.84 0.74 0.68 0.63 0.51 0.44 0.37 0.33
0.09 0.07 0.05 0.05 0.05 0.06 0.05 0.09 0.31 0.63 0.97 1.03 0.61 0.69 1.04 0.95 0.62 0.32 0.20 0.17 0.23 0.36 0.47 0.55 0.60 0.67 0.78 0.65 0.65 0.79 0.83 0.83 0.91 0.90 0.83 0.82 0.82 0.75 0.63 0.54 0.46 0.38 0.29 0.27
0.15 0.14 0.09 0.06 0.06 0.06 0.06 0.07 0.18 0.34 0.43 0.57 0.59 1.05 1.21 0.64 0.34 0.20 0.14 0.10 0.14 0.22 0.31 0.37 0.41 0.48 0.56 0.47 0.46 0.57 0.66 0.63 0.62 0.62 0.62 0.63 0.69 0.60 0.53 0.55 0.47 0.38 0.30 0.26
0.06 0.08 0.07 0.07 0.07 0.07 0.06 0.05 0.07 0.09 0.16 0.40 0.74 1.04 0.91 0.45 0.29 0.15 0.11 0.10 0.11 0.15 0.19 0.22 0.23 0.26 0.33 0.34 0.36 0.42 0.51 0.53 0.48 0.49 0.49 0.47 0.55 0.56 0.52 0.50 0.44 0.39 0.40 0.33
0.04 0.03 0.05 0.05 0.07 0.07 0.06 0.06 0.07 0.10 0.18 0.36 0.64 0.99 1.02 0.58 0.33 0.18 0.14 0.15 0.14 0.14 0.15 0.13 0.13 0.14 0.18 0.24 0.33 0.39 0.44 0.47 0.45 0.44 0.44 0.37 0.41 0.50 0.57 0.52 0.45 0.44 0.44 0.38
0.03 0.02 0.05 0.05 0.07 0.08 0.09 0.08 0.10 0.10 0.11 0.21 0.48 0.68 0.49 0.37 0.29 0.24 0.20 0.16 0.13 0.13 0.15 0.12 0.09 0.09 0.12 0.18 0.24 0.29 0.39 0.47 0.47 0.46 0.49 0.49 0.46 0.43 0.50 0.55 0.55 0.54 0.55 0.46
0.03 0.03 0.04 0.08 0.10 0.10 0.11 0.11 0.12 0.13 0.12 0.12 0.24 0.35 0.30 0.36 0.38 0.30 0.22 0.19 0.13 0.12 0.12 0.10 0.09 0.10 0.13 0.14 0.18 0.24 0.31 0.42 0.44 0.46 0.50 0.52 0.53 0.46 0.47 0.52 0.55 0.56 0.60 0.62
0.03 0.04 0.06 0.15 0.22 0.17 0.12 0.11 0.12 0.12 0.10 0.11 0.25 0.36 0.30 0.27 0.30 0.26 0.25 0.20 0.15 0.14 0.15 0.12 0.16 0.17 0.16 0.19 0.22 0.28 0.34 0.43 0.51 0.51 0.52 0.54 0.55 0.51 0.50 0.57 0.60 0.58 0.65 0.71
0.04 0.04 0.06 0.15 0.24 0.27 0.20 0.13 0.12 0.10 0.08 0.09 0.15 0.31 0.30 0.29 0.26 0.30 0.32 0.27 0.23 0.18 0.15 0.12 0.13 0.17 0.18 0.23 0.29 0.37 0.54 0.49 0.46 0.53 0.56 0.56 0.57 0.60 0.61 0.63 0.68 0.68 0.73 0.75
0.04 0.04 0.04 0.05 0.09 0.14 0.19 0.17 0.13 0.09 0.06 0.08 0.11 0.21 0.27 0.35 0.30 0.29 0.31 0.29 0.28 0.21 0.16 0.16 0.16 0.17 0.24 0.29 0.32 0.39 0.46 0.58 0.60 0.69 0.73 0.75 0.81 0.87 0.90 0.90 0.90 0.85 0.84 0.83
0.07 0.06 0.04 0.04 0.07 0.10 0.13 0.16 0.11 0.08 0.07 0.06 0.09 0.20 0.27 0.28 0.23 0.26 0.26 0.30 0.27 0.23 0.21 0.22 0.24 0.24 0.24 0.26 0.32 0.40 0.43 0.52 0.65 0.82 0.90 0.94 1.08 1.18 1.21 1.26 1.28 1.20 1.11 1.14
0.13 0.10 0.08 0.07 0.10 0.11 0.15 0.14 0.12 0.12 0.11 0.10 0.15 0.23 0.25 0.29 0.31 0.43 0.43 0.41 0.42 0.35 0.33 0.33 0.35 0.33 0.31 0.30 0.34 0.40 0.47 0.59 0.74 0.93 1.10 1.22 1.34 1.46 1.54 1.59 1.59 1.50 1.48 1.50
0.19 0.19 0.16 0.12 0.15 0.20 0.17 0.18 0.15 0.16 0.18 0.18 0.22 0.29 0.37 0.47 0.53 0.62 0.66 0.54 0.48 0.41 0.36 0.35 0.42 0.43 0.40 0.43 0.49 0.56 0.67 0.82 0.98 1.14 1.32 1.49 1.50 1.51 1.56 1.60 1.54 1.53 1.59 1.61
0.21 0.25 0.26 0.22 0.23 0.21 0.22 0.25 0.25 0.27 0.35 0.35 0.41 0.47 0.58 0.63 0.56 0.54 0.50 0.42 0.34 0.32 0.34 0.35 0.40 0.48 0.54 0.54 0.60 0.68 0.71 0.82 1.00 1.16 1.24 1.31 1.40 1.50 1.55 1.54 1.58 1.60 1.61 1.50
0.30 0.31 0.40 0.35 0.36 0.35 0.34 0.39 0.35 0.36 0.62 0.60 0.55 0.57 0.61 0.64 0.73 0.65 0.49 0.41 0.38 0.34 0.33 0.35 0.37 0.42 0.51 0.59 0.61 0.64 0.71 0.83 1.01 1.15 1.18 1.18 1.29 1.42 1.50 1.52 1.52 1.49 1.47 1.44
0.49 0.53 0.50 0.49 0.51 0.42 0.40 0.35 0.34 0.54 0.71 0.63 0.64 0.68 0.69 0.75 0.79 0.70 0.54 0.45 0.40 0.38 0.36 0.38 0.43 0.44 0.46 0.54 0.59 0.68 0.78 0.85 0.90 0.99 1.07 1.15 1.29 1.39 1.43 1.47 1.47 1.46 1.46 1.48
0.58 0.62 0.62 0.62 0.74 0.71 0.53 0.43 0.56 0.70 0.60 0.68 0.71 0.65 0.66 0.65 0.58 0.51 0.48 0.52 0.48 0.41 0.38 0.39 0.46 0.55 0.58 0.58 0.59 0.63 0.66 0.67 0.74 0.79 0.84 0.88 0.99 1.12 1.18 1.27 1.28 1.32 1.29 1.25
0.71 0.69 0.71 0.80 0.86 0.70 0.63 0.64 0.66 0.64 0.56 0.59 0.65 0.64 0.65 0.66 0.58 0.45 0.40 0.41 0.47 0.47 0.43 0.43 0.46 0.51 0.52 0.56 0.62 0.69 0.68 0.66 0.66 0.66 0.66 0.68 0.73 0.89 1.03 1.08 1.07 1.10 1.11 1.09
0.81 0.67 0.74 0.94 0.97 0.87 0.81 0.77 0.67 0.65 0.62 0.56 0.62 0.72 0.73 0.69 0.59 0.49 0.42 0.34 0.31 0.30 0.29 0.35 0.39 0.46 0.49 0.48 0.51 0.57 0.61 0.62 0.66 0.66 0.65 0.65 0.70 0.80 1.05 1.18 1.12 1.06 1.04 1.00
0.74 0.77 0.81 0.95 1.05 0.89 0.81 0.78 0.76 0.72 0.68 0.65 0.66 0.74 0.74 0.63 0.58 0.52 0.42 0.32 0.27 0.24 0.22 0.25 0.29 0.32 0.32 0.33 0.37 0.40 0.45 0.52 0.56 0.54 0.51 0.52 0.58 0.71 0.91 1.07 1.06 0.93 0.90 0.89
0.60 0.71 0.78 0.90 0.88 0.90 0.92 0.85 0.81 0.83 0.82 0.76 0.72 0.77 0.75 0.64 0.55 0.46 0.36 0.27 0.25 0.23 0.22 0.25 0.28 0.32 0.34 0.35 0.40 0.44 0.47 0.54 0.59 0.56 0.53 0.52 0.54 0.62 0.82 1.02 1.07 0.87 0.71 0.70